owner,sensor,date,latitude,longitude,air_pressure(mBar),qcFlag 
COMPS,ioos:station:USF.COMPS:ANM:1,2012-11-01T00:00:00Z,27.5400,-82.7400,1017.0,1111122 
COMPS,ioos:station:USF.COMPS:ANM:1,2012-11-01T00:06:00Z,27.5400,-82.7400,1017.06,1111122 
COMPS,ioos:station:USF.COMPS:ANM:1,2012-11-01T00:12:00Z,27.5400,-82.7400,1017.08,1111122 
COMPS,ioos:station:USF.COMPS:ANM:1,2012-11-01T00:18:00Z,27.5400,-82.7400,1017.08,1111122 
COMPS,ioos:station:USF.COMPS:ANM:1,2012-11-01T00:24:00Z,27.5400,-82.7400,1017.08,1111122 
COMPS,ioos:station:USF.COMPS:ANM:1,2012-11-01T00:30:00Z,27.5400,-82.7400,1017.08,1111122 
COMPS,ioos:station:USF.COMPS:ANM:1,2012-11-01T00:36:00Z,27.5400,-82.7400,1017.12,1111122 
COMPS,ioos:station:USF.COMPS:ANM:1,2012-11-01T00:42:00Z,27.5400,-82.7400,1017.08,1111122 
COMPS,ioos:station:USF.COMPS:ANM:1,2012-11-01T00:48:00Z,27.5400,-82.7400,1017.08,1111122 
COMPS,ioos:station:USF.COMPS:ANM:1,2012-11-01T00:54:00Z,27.5400,-82.7400,1017.09,1111122 
COMPS,ioos:station:USF.COMPS:ANM:1,2012-11-01T01:00:00Z,27.5400,-82.7400,1017.1,1111122 
COMPS,ioos:station:USF.COMPS:ANM:1,2012-11-01T01:06:00Z,27.5400,-82.7400,1017.18,1111122 
COMPS,ioos:station:USF.COMPS:ANM:1,2012-11-01T01:12:00Z,27.5400,-82.7400,1017.22,1111122 
COMPS,ioos:station:USF.COMPS:ANM:1,2012-11-01T01:18:00Z,27.5400,-82.7400,1017.33,1111122 
COMPS,ioos:station:USF.COMPS:ANM:1,2012-11-01T01:24:00Z,27.5400,-82.7400,1017.44,1111122 
COMPS,ioos:station:USF.COMPS:ANM:1,2012-11-01T01:30:00Z,27.5400,-82.7400,1017.48,1111122 
COMPS,ioos:station:USF.COMPS:ANM:1,2012-11-01T01:36:00Z,27.5400,-82.7400,1017.48,1111122 
COMPS,ioos:station:USF.COMPS:ANM:1,2012-11-01T01:42:00Z,27.5400,-82.7400,1017.48,1111122 
COMPS,ioos:station:USF.COMPS:ANM:1,2012-11-01T01:48:00Z,27.5400,-82.7400,1017.48,1111122 
COMPS,ioos:station:USF.COMPS:ANM:1,2012-11-01T01:54:00Z,27.5400,-82.7400,1017.48,1111122 
COMPS,ioos:station:USF.COMPS:ANM:1,2012-11-01T02:00:00Z,27.5400,-82.7400,1017.5,1111122 
COMPS,ioos:station:USF.COMPS:ANM:1,2012-11-01T02:06:00Z,27.5400,-82.7400,1017.61,1111122 
COMPS,ioos:station:USF.COMPS:ANM:1,2012-11-01T02:12:00Z,27.5400,-82.7400,1017.61,1111122 
COMPS,ioos:station:USF.COMPS:ANM:1,2012-11-01T02:18:00Z,27.5400,-82.7400,1017.61,1111122 
COMPS,ioos:station:USF.COMPS:ANM:1,2012-11-01T02:24:00Z,27.5400,-82.7400,1017.61,1111122 
COMPS,ioos:station:USF.COMPS:ANM:1,2012-11-01T02:30:00Z,27.5400,-82.7400,1017.61,1111122 
COMPS,ioos:station:USF.COMPS:ANM:1,2012-11-01T02:36:00Z,27.5400,-82.7400,1017.68,1111122 
COMPS,ioos:station:USF.COMPS:ANM:1,2012-11-01T02:42:00Z,27.5400,-82.7400,1017.72,1111122 
COMPS,ioos:station:USF.COMPS:ANM:1,2012-11-01T02:48:00Z,27.5400,-82.7400,1017.74,1111122 
COMPS,ioos:station:USF.COMPS:ANM:1,2012-11-01T02:54:00Z,27.5400,-82.7400,1017.74,1111122 
COMPS,ioos:station:USF.COMPS:ANM:1,2012-11-01T03:00:00Z,27.5400,-82.7400,1017.7,1111122 
COMPS,ioos:station:USF.COMPS:ANM:1,2012-11-01T03:06:00Z,27.5400,-82.7400,1017.74,1111122 
COMPS,ioos:station:USF.COMPS:ANM:1,2012-11-01T03:12:00Z,27.5400,-82.7400,1017.74,1111122 
COMPS,ioos:station:USF.COMPS:ANM:1,2012-11-01T03:18:00Z,27.5400,-82.7400,1017.7,1111122 
COMPS,ioos:station:USF.COMPS:ANM:1,2012-11-01T03:24:00Z,27.5400,-82.7400,1017.68,1111122 
COMPS,ioos:station:USF.COMPS:ANM:1,2012-11-01T03:30:00Z,27.5400,-82.7400,1017.69,1111122 
COMPS,ioos:station:USF.COMPS:ANM:1,2012-11-01T03:36:00Z,27.5400,-82.7400,1017.7,1111122 
COMPS,ioos:station:USF.COMPS:ANM:1,2012-11-01T03:42:00Z,27.5400,-82.7400,1017.74,1111122 
COMPS,ioos:station:USF.COMPS:ANM:1,2012-11-01T03:48:00Z,27.5400,-82.7400,1017.72,1111122 
COMPS,ioos:station:USF.COMPS:ANM:1,2012-11-01T03:54:00Z,27.5400,-82.7400,1017.68,1111122 
COMPS,ioos:station:USF.COMPS:ANM:1,2012-11-01T04:00:00Z,27.5400,-82.7400,1017.7,1111122 
COMPS,ioos:station:USF.COMPS:ANM:1,2012-11-01T04:06:00Z,27.5400,-82.7400,1017.7,1111122 
COMPS,ioos:station:USF.COMPS:ANM:1,2012-11-01T04:12:00Z,27.5400,-82.7400,1017.68,1111122 
COMPS,ioos:station:USF.COMPS:ANM:1,2012-11-01T04:18:00Z,27.5400,-82.7400,1017.61,1111122 
COMPS,ioos:station:USF.COMPS:ANM:1,2012-11-01T04:24:00Z,27.5400,-82.7400,1017.6,1111122 
COMPS,ioos:station:USF.COMPS:ANM:1,2012-11-01T04:30:00Z,27.5400,-82.7400,1017.57,1111122 
COMPS,ioos:station:USF.COMPS:ANM:1,2012-11-01T04:36:00Z,27.5400,-82.7400,1017.46,1111122 
COMPS,ioos:station:USF.COMPS:ANM:1,2012-11-01T04:42:00Z,27.5400,-82.7400,1017.5,1111122 
COMPS,ioos:station:USF.COMPS:ANM:1,2012-11-01T04:48:00Z,27.5400,-82.7400,1017.48,1111122 
COMPS,ioos:station:USF.COMPS:ANM:1,2012-11-01T04:54:00Z,27.5400,-82.7400,1017.46,1111122 
COMPS,ioos:station:USF.COMPS:ANM:1,2012-11-01T05:00:00Z,27.5400,-82.7400,1017.5,1111122 
COMPS,ioos:station:USF.COMPS:ANM:1,2012-11-01T05:06:00Z,27.5400,-82.7400,1017.4,1111122 
COMPS,ioos:station:USF.COMPS:ANM:1,2012-11-01T05:12:00Z,27.5400,-82.7400,1017.34,1111122 
COMPS,ioos:station:USF.COMPS:ANM:1,2012-11-01T05:18:00Z,27.5400,-82.7400,1017.34,1111122 
COMPS,ioos:station:USF.COMPS:ANM:1,2012-11-01T05:24:00Z,27.5400,-82.7400,1017.34,1111122 
COMPS,ioos:station:USF.COMPS:ANM:1,2012-11-01T05:30:00Z,27.5400,-82.7400,1017.34,1111122 
COMPS,ioos:station:USF.COMPS:ANM:1,2012-11-01T05:36:00Z,27.5400,-82.7400,1017.34,1111122 
COMPS,ioos:station:USF.COMPS:ANM:1,2012-11-01T05:42:00Z,27.5400,-82.7400,1017.32,1111122 
COMPS,ioos:station:USF.COMPS:ANM:1,2012-11-01T05:48:00Z,27.5400,-82.7400,1017.25,1111122 
COMPS,ioos:station:USF.COMPS:ANM:1,2012-11-01T05:54:00Z,27.5400,-82.7400,1017.3,1111122 
COMPS,ioos:station:USF.COMPS:ANM:1,2012-11-01T06:00:00Z,27.5400,-82.7400,1017.3,1111122 
COMPS,ioos:station:USF.COMPS:ANM:1,2012-11-01T06:06:00Z,27.5400,-82.7400,1017.33,1111122 
COMPS,ioos:station:USF.COMPS:ANM:1,2012-11-01T06:12:00Z,27.5400,-82.7400,1017.3,1111122 
COMPS,ioos:station:USF.COMPS:ANM:1,2012-11-01T06:18:00Z,27.5400,-82.7400,1017.34,1111122 
COMPS,ioos:station:USF.COMPS:ANM:1,2012-11-01T06:24:00Z,27.5400,-82.7400,1017.29,1111122 
COMPS,ioos:station:USF.COMPS:ANM:1,2012-11-01T06:30:00Z,27.5400,-82.7400,1017.21,1111122 
COMPS,ioos:station:USF.COMPS:ANM:1,2012-11-01T06:36:00Z,27.5400,-82.7400,1017.2,1111122 
COMPS,ioos:station:USF.COMPS:ANM:1,2012-11-01T06:42:00Z,27.5400,-82.7400,1017.2,1111122 
COMPS,ioos:station:USF.COMPS:ANM:1,2012-11-01T06:48:00Z,27.5400,-82.7400,1017.17,1111122 
COMPS,ioos:station:USF.COMPS:ANM:1,2012-11-01T06:54:00Z,27.5400,-82.7400,1017.16,1111122 
COMPS,ioos:station:USF.COMPS:ANM:1,2012-11-01T07:00:00Z,27.5400,-82.7400,1017.2,1111122 
COMPS,ioos:station:USF.COMPS:ANM:1,2012-11-01T07:06:00Z,27.5400,-82.7400,1017.09,1111122 
COMPS,ioos:station:USF.COMPS:ANM:1,2012-11-01T07:12:00Z,27.5400,-82.7400,1017.06,1111122 
COMPS,ioos:station:USF.COMPS:ANM:1,2012-11-01T07:18:00Z,27.5400,-82.7400,1017.04,1111122 
COMPS,ioos:station:USF.COMPS:ANM:1,2012-11-01T07:24:00Z,27.5400,-82.7400,1016.97,1111122 
COMPS,ioos:station:USF.COMPS:ANM:1,2012-11-01T07:30:00Z,27.5400,-82.7400,1016.94,1111122 
COMPS,ioos:station:USF.COMPS:ANM:1,2012-11-01T07:36:00Z,27.5400,-82.7400,1016.89,1111122 
COMPS,ioos:station:USF.COMPS:ANM:1,2012-11-01T07:42:00Z,27.5400,-82.7400,1016.86,1111122 
COMPS,ioos:station:USF.COMPS:ANM:1,2012-11-01T07:48:00Z,27.5400,-82.7400,1016.86,1111122 
COMPS,ioos:station:USF.COMPS:ANM:1,2012-11-01T07:54:00Z,27.5400,-82.7400,1016.86,1111122 
COMPS,ioos:station:USF.COMPS:ANM:1,2012-11-01T08:00:00Z,27.5400,-82.7400,1016.9,1111122 
COMPS,ioos:station:USF.COMPS:ANM:1,2012-11-01T08:06:00Z,27.5400,-82.7400,1016.85,1111122 
COMPS,ioos:station:USF.COMPS:ANM:1,2012-11-01T08:12:00Z,27.5400,-82.7400,1016.85,1111122 
COMPS,ioos:station:USF.COMPS:ANM:1,2012-11-01T08:18:00Z,27.5400,-82.7400,1016.82,1111122 
COMPS,ioos:station:USF.COMPS:ANM:1,2012-11-01T08:24:00Z,27.5400,-82.7400,1016.74,1111122 
COMPS,ioos:station:USF.COMPS:ANM:1,2012-11-01T08:30:00Z,27.5400,-82.7400,1016.74,1111122 
COMPS,ioos:station:USF.COMPS:ANM:1,2012-11-01T08:36:00Z,27.5400,-82.7400,1016.74,1111122 
COMPS,ioos:station:USF.COMPS:ANM:1,2012-11-01T08:42:00Z,27.5400,-82.7400,1016.7,1111122 
COMPS,ioos:station:USF.COMPS:ANM:1,2012-11-01T08:48:00Z,27.5400,-82.7400,1016.65,1111122 
COMPS,ioos:station:USF.COMPS:ANM:1,2012-11-01T08:54:00Z,27.5400,-82.7400,1016.56,1111122 
COMPS,ioos:station:USF.COMPS:ANM:1,2012-11-01T09:00:00Z,27.5400,-82.7400,1016.6,1111122 
COMPS,ioos:station:USF.COMPS:ANM:1,2012-11-01T09:06:00Z,27.5400,-82.7400,1016.37,1111122 
COMPS,ioos:station:USF.COMPS:ANM:1,2012-11-01T09:12:00Z,27.5400,-82.7400,1016.38,1111122 
COMPS,ioos:station:USF.COMPS:ANM:1,2012-11-01T09:18:00Z,27.5400,-82.7400,1016.37,1111122 
COMPS,ioos:station:USF.COMPS:ANM:1,2012-11-01T09:24:00Z,27.5400,-82.7400,1016.38,1111122 
COMPS,ioos:station:USF.COMPS:ANM:1,2012-11-01T09:30:00Z,27.5400,-82.7400,1016.41,1111122 
COMPS,ioos:station:USF.COMPS:ANM:1,2012-11-01T09:36:00Z,27.5400,-82.7400,1016.46,1111122 
COMPS,ioos:station:USF.COMPS:ANM:1,2012-11-01T09:42:00Z,27.5400,-82.7400,1016.38,1111122 
COMPS,ioos:station:USF.COMPS:ANM:1,2012-11-01T09:48:00Z,27.5400,-82.7400,1016.38,1111122 
COMPS,ioos:station:USF.COMPS:ANM:1,2012-11-01T09:54:00Z,27.5400,-82.7400,1016.3,1111122 
COMPS,ioos:station:USF.COMPS:ANM:1,2012-11-01T10:00:00Z,27.5400,-82.7400,1016.3,1111122 
COMPS,ioos:station:USF.COMPS:ANM:1,2012-11-01T10:06:00Z,27.5400,-82.7400,1016.24,1111122 
COMPS,ioos:station:USF.COMPS:ANM:1,2012-11-01T10:12:00Z,27.5400,-82.7400,1016.25,1111122 
COMPS,ioos:station:USF.COMPS:ANM:1,2012-11-01T10:18:00Z,27.5400,-82.7400,1016.36,1111122 
COMPS,ioos:station:USF.COMPS:ANM:1,2012-11-01T10:24:00Z,27.5400,-82.7400,1016.37,1111122 
COMPS,ioos:station:USF.COMPS:ANM:1,2012-11-01T10:30:00Z,27.5400,-82.7400,1016.38,1111122 
COMPS,ioos:station:USF.COMPS:ANM:1,2012-11-01T10:36:00Z,27.5400,-82.7400,1016.44,1111122 
COMPS,ioos:station:USF.COMPS:ANM:1,2012-11-01T10:42:00Z,27.5400,-82.7400,1016.49,1111122 
COMPS,ioos:station:USF.COMPS:ANM:1,2012-11-01T10:48:00Z,27.5400,-82.7400,1016.56,1111122 
COMPS,ioos:station:USF.COMPS:ANM:1,2012-11-01T10:54:00Z,27.5400,-82.7400,1016.66,1111122 
COMPS,ioos:station:USF.COMPS:ANM:1,2012-11-01T11:00:00Z,27.5400,-82.7400,1016.7,1111122 
COMPS,ioos:station:USF.COMPS:ANM:1,2012-11-01T11:06:00Z,27.5400,-82.7400,1016.66,1111122 
COMPS,ioos:station:USF.COMPS:ANM:1,2012-11-01T11:12:00Z,27.5400,-82.7400,1016.66,1111122 
COMPS,ioos:station:USF.COMPS:ANM:1,2012-11-01T11:18:00Z,27.5400,-82.7400,1016.66,1111122 
COMPS,ioos:station:USF.COMPS:ANM:1,2012-11-01T11:24:00Z,27.5400,-82.7400,1016.65,1111122 
COMPS,ioos:station:USF.COMPS:ANM:1,2012-11-01T11:30:00Z,27.5400,-82.7400,1016.68,1111122 
COMPS,ioos:station:USF.COMPS:ANM:1,2012-11-01T11:36:00Z,27.5400,-82.7400,1016.82,1111122 
COMPS,ioos:station:USF.COMPS:ANM:1,2012-11-01T11:42:00Z,27.5400,-82.7400,1016.97,1111122 
COMPS,ioos:station:USF.COMPS:ANM:1,2012-11-01T11:48:00Z,27.5400,-82.7400,1016.97,1111122 
COMPS,ioos:station:USF.COMPS:ANM:1,2012-11-01T11:54:00Z,27.5400,-82.7400,1016.96,1111122 
COMPS,ioos:station:USF.COMPS:ANM:1,2012-11-01T12:00:00Z,27.5400,-82.7400,1017.0,1111122 
COMPS,ioos:station:USF.COMPS:ANM:1,2012-11-01T12:06:00Z,27.5400,-82.7400,1017.09,1111122 
COMPS,ioos:station:USF.COMPS:ANM:1,2012-11-01T12:12:00Z,27.5400,-82.7400,1017.18,1111122 
COMPS,ioos:station:USF.COMPS:ANM:1,2012-11-01T12:18:00Z,27.5400,-82.7400,1017.37,1111122 
COMPS,ioos:station:USF.COMPS:ANM:1,2012-11-01T12:24:00Z,27.5400,-82.7400,1017.64,1111122 
COMPS,ioos:station:USF.COMPS:ANM:1,2012-11-01T12:30:00Z,27.5400,-82.7400,1017.56,1111122 
COMPS,ioos:station:USF.COMPS:ANM:1,2012-11-01T12:36:00Z,27.5400,-82.7400,1017.44,1111122 
COMPS,ioos:station:USF.COMPS:ANM:1,2012-11-01T12:42:00Z,27.5400,-82.7400,1017.34,1111122 
COMPS,ioos:station:USF.COMPS:ANM:1,2012-11-01T12:48:00Z,27.5400,-82.7400,1017.38,1111122 
COMPS,ioos:station:USF.COMPS:ANM:1,2012-11-01T12:54:00Z,27.5400,-82.7400,1017.48,1111122 
COMPS,ioos:station:USF.COMPS:ANM:1,2012-11-01T13:00:00Z,27.5400,-82.7400,1017.5,1111122 
COMPS,ioos:station:USF.COMPS:ANM:1,2012-11-01T14:00:00Z,27.5400,-82.7400,1017.9,1111122 
COMPS,ioos:station:USF.COMPS:ANM:1,2012-11-01T14:06:00Z,27.5400,-82.7400,1018.04,1111122 
COMPS,ioos:station:USF.COMPS:ANM:1,2012-11-01T14:12:00Z,27.5400,-82.7400,1018.08,1111122 
COMPS,ioos:station:USF.COMPS:ANM:1,2012-11-01T14:18:00Z,27.5400,-82.7400,1018.12,1111122 
COMPS,ioos:station:USF.COMPS:ANM:1,2012-11-01T14:24:00Z,27.5400,-82.7400,1018.17,1111122 
COMPS,ioos:station:USF.COMPS:ANM:1,2012-11-01T14:30:00Z,27.5400,-82.7400,1018.14,1111122 
COMPS,ioos:station:USF.COMPS:ANM:1,2012-11-01T14:36:00Z,27.5400,-82.7400,1018.06,1111122 
COMPS,ioos:station:USF.COMPS:ANM:1,2012-11-01T14:42:00Z,27.5400,-82.7400,1018.08,1111122 
COMPS,ioos:station:USF.COMPS:ANM:1,2012-11-01T14:48:00Z,27.5400,-82.7400,1018.16,1111122 
COMPS,ioos:station:USF.COMPS:ANM:1,2012-11-01T14:54:00Z,27.5400,-82.7400,1018.12,1111122 
COMPS,ioos:station:USF.COMPS:ANM:1,2012-11-01T15:00:00Z,27.5400,-82.7400,1018.1,1111122 
COMPS,ioos:station:USF.COMPS:ANM:1,2012-11-01T15:06:00Z,27.5400,-82.7400,1018.13,1111122 
COMPS,ioos:station:USF.COMPS:ANM:1,2012-11-01T15:12:00Z,27.5400,-82.7400,1018.17,1111122 
COMPS,ioos:station:USF.COMPS:ANM:1,2012-11-01T15:18:00Z,27.5400,-82.7400,1018.25,1111122 
COMPS,ioos:station:USF.COMPS:ANM:1,2012-11-01T15:24:00Z,27.5400,-82.7400,1018.28,1111122 
COMPS,ioos:station:USF.COMPS:ANM:1,2012-11-01T15:30:00Z,27.5400,-82.7400,1018.28,1111122 
COMPS,ioos:station:USF.COMPS:ANM:1,2012-11-01T15:36:00Z,27.5400,-82.7400,1018.22,1111122 
COMPS,ioos:station:USF.COMPS:ANM:1,2012-11-01T15:42:00Z,27.5400,-82.7400,1018.24,1111122 
COMPS,ioos:station:USF.COMPS:ANM:1,2012-11-01T15:48:00Z,27.5400,-82.7400,1018.2,1111122 
COMPS,ioos:station:USF.COMPS:ANM:1,2012-11-01T15:54:00Z,27.5400,-82.7400,1018.14,1111122 
COMPS,ioos:station:USF.COMPS:ANM:1,2012-11-01T16:00:00Z,27.5400,-82.7400,1018.1,1111122 
COMPS,ioos:station:USF.COMPS:ANM:1,2012-11-01T16:06:00Z,27.5400,-82.7400,1018.16,1111122 
COMPS,ioos:station:USF.COMPS:ANM:1,2012-11-01T16:12:00Z,27.5400,-82.7400,1018.13,1111122 
COMPS,ioos:station:USF.COMPS:ANM:1,2012-11-01T16:18:00Z,27.5400,-82.7400,1017.97,1111122 
COMPS,ioos:station:USF.COMPS:ANM:1,2012-11-01T16:24:00Z,27.5400,-82.7400,1017.89,1111122 
COMPS,ioos:station:USF.COMPS:ANM:1,2012-11-01T16:30:00Z,27.5400,-82.7400,1017.76,1111122 
COMPS,ioos:station:USF.COMPS:ANM:1,2012-11-01T16:36:00Z,27.5400,-82.7400,1017.62,1111122 
COMPS,ioos:station:USF.COMPS:ANM:1,2012-11-01T16:42:00Z,27.5400,-82.7400,1017.56,1111122 
COMPS,ioos:station:USF.COMPS:ANM:1,2012-11-01T16:48:00Z,27.5400,-82.7400,1017.53,1111122 
COMPS,ioos:station:USF.COMPS:ANM:1,2012-11-01T16:54:00Z,27.5400,-82.7400,1017.37,1111122 
COMPS,ioos:station:USF.COMPS:ANM:1,2012-11-01T17:00:00Z,27.5400,-82.7400,1017.4,1111122 
COMPS,ioos:station:USF.COMPS:ANM:1,2012-11-01T17:06:00Z,27.5400,-82.7400,1017.4,1111122 
COMPS,ioos:station:USF.COMPS:ANM:1,2012-11-01T17:12:00Z,27.5400,-82.7400,1017.33,1111122 
COMPS,ioos:station:USF.COMPS:ANM:1,2012-11-01T17:18:00Z,27.5400,-82.7400,1017.32,1111122 
COMPS,ioos:station:USF.COMPS:ANM:1,2012-11-01T17:24:00Z,27.5400,-82.7400,1017.29,1111122 
COMPS,ioos:station:USF.COMPS:ANM:1,2012-11-01T17:30:00Z,27.5400,-82.7400,1017.01,1111122 
COMPS,ioos:station:USF.COMPS:ANM:1,2012-11-01T17:36:00Z,27.5400,-82.7400,1016.54,1111122 
COMPS,ioos:station:USF.COMPS:ANM:1,2012-11-01T17:42:00Z,27.5400,-82.7400,1016.4,1111122 
COMPS,ioos:station:USF.COMPS:ANM:1,2012-11-01T17:48:00Z,27.5400,-82.7400,1016.42,1111122 
COMPS,ioos:station:USF.COMPS:ANM:1,2012-11-01T17:54:00Z,27.5400,-82.7400,1016.46,1111122 
COMPS,ioos:station:USF.COMPS:ANM:1,2012-11-01T18:00:00Z,27.5400,-82.7400,1016.5,1111122 
COMPS,ioos:station:USF.COMPS:ANM:1,2012-11-01T19:00:00Z,27.5400,-82.7400,1015.8,1111122 
COMPS,ioos:station:USF.COMPS:ANM:1,2012-11-01T19:06:00Z,27.5400,-82.7400,1015.65,1111122 
COMPS,ioos:station:USF.COMPS:ANM:1,2012-11-01T19:12:00Z,27.5400,-82.7400,1015.58,1111122 
COMPS,ioos:station:USF.COMPS:ANM:1,2012-11-01T19:18:00Z,27.5400,-82.7400,1015.58,1111122 
COMPS,ioos:station:USF.COMPS:ANM:1,2012-11-01T19:24:00Z,27.5400,-82.7400,1015.54,1111122 
COMPS,ioos:station:USF.COMPS:ANM:1,2012-11-01T19:30:00Z,27.5400,-82.7400,1015.56,1111122 
COMPS,ioos:station:USF.COMPS:ANM:1,2012-11-01T19:36:00Z,27.5400,-82.7400,1015.58,1111122 
COMPS,ioos:station:USF.COMPS:ANM:1,2012-11-01T19:42:00Z,27.5400,-82.7400,1015.64,1111122 
COMPS,ioos:station:USF.COMPS:ANM:1,2012-11-01T19:48:00Z,27.5400,-82.7400,1015.64,1111122 
COMPS,ioos:station:USF.COMPS:ANM:1,2012-11-01T19:54:00Z,27.5400,-82.7400,1015.6,1111122 
COMPS,ioos:station:USF.COMPS:ANM:1,2012-11-01T20:00:00Z,27.5400,-82.7400,1015.6,1111122 
COMPS,ioos:station:USF.COMPS:ANM:1,2012-11-01T20:06:00Z,27.5400,-82.7400,1015.57,1111122 
COMPS,ioos:station:USF.COMPS:ANM:1,2012-11-01T20:12:00Z,27.5400,-82.7400,1015.58,1111122 
COMPS,ioos:station:USF.COMPS:ANM:1,2012-11-01T20:18:00Z,27.5400,-82.7400,1015.54,1111122 
COMPS,ioos:station:USF.COMPS:ANM:1,2012-11-01T20:24:00Z,27.5400,-82.7400,1015.44,1111122 
COMPS,ioos:station:USF.COMPS:ANM:1,2012-11-01T20:30:00Z,27.5400,-82.7400,1015.37,1111122 
COMPS,ioos:station:USF.COMPS:ANM:1,2012-11-01T20:36:00Z,27.5400,-82.7400,1015.21,1111122 
COMPS,ioos:station:USF.COMPS:ANM:1,2012-11-01T20:42:00Z,27.5400,-82.7400,1015.21,1111122 
COMPS,ioos:station:USF.COMPS:ANM:1,2012-11-01T20:48:00Z,27.5400,-82.7400,1015.2,1111122 
COMPS,ioos:station:USF.COMPS:ANM:1,2012-11-01T20:54:00Z,27.5400,-82.7400,1015.17,1111122 
COMPS,ioos:station:USF.COMPS:ANM:1,2012-11-01T21:00:00Z,27.5400,-82.7400,1015.2,1111122 
COMPS,ioos:station:USF.COMPS:ANM:1,2012-11-01T21:06:00Z,27.5400,-82.7400,1015.26,1111122 
COMPS,ioos:station:USF.COMPS:ANM:1,2012-11-01T21:12:00Z,27.5400,-82.7400,1015.36,1111122 
COMPS,ioos:station:USF.COMPS:ANM:1,2012-11-01T21:18:00Z,27.5400,-82.7400,1015.32,1111122 
COMPS,ioos:station:USF.COMPS:ANM:1,2012-11-01T21:24:00Z,27.5400,-82.7400,1015.22,1111122 
COMPS,ioos:station:USF.COMPS:ANM:1,2012-11-01T21:30:00Z,27.5400,-82.7400,1015.24,1111122 
COMPS,ioos:station:USF.COMPS:ANM:1,2012-11-01T21:36:00Z,27.5400,-82.7400,1015.24,1111122 
COMPS,ioos:station:USF.COMPS:ANM:1,2012-11-01T21:42:00Z,27.5400,-82.7400,1015.32,1111122 
COMPS,ioos:station:USF.COMPS:ANM:1,2012-11-01T21:48:00Z,27.5400,-82.7400,1015.36,1111122 
COMPS,ioos:station:USF.COMPS:ANM:1,2012-11-01T21:54:00Z,27.5400,-82.7400,1015.4,1111122 
COMPS,ioos:station:USF.COMPS:ANM:1,2012-11-01T22:00:00Z,27.5400,-82.7400,1015.4,1111122 
COMPS,ioos:station:USF.COMPS:ANM:1,2012-11-01T23:00:00Z,27.5400,-82.7400,1015.4,1111122 
COMPS,ioos:station:USF.COMPS:ANM:1,2012-11-01T23:06:00Z,27.5400,-82.7400,1015.46,1111122 
COMPS,ioos:station:USF.COMPS:ANM:1,2012-11-01T23:12:00Z,27.5400,-82.7400,1015.53,1111122 
COMPS,ioos:station:USF.COMPS:ANM:1,2012-11-01T23:18:00Z,27.5400,-82.7400,1015.58,1111122 
COMPS,ioos:station:USF.COMPS:ANM:1,2012-11-01T23:24:00Z,27.5400,-82.7400,1015.62,1111122 
COMPS,ioos:station:USF.COMPS:ANM:1,2012-11-01T23:30:00Z,27.5400,-82.7400,1015.61,1111122 
COMPS,ioos:station:USF.COMPS:ANM:1,2012-11-01T23:36:00Z,27.5400,-82.7400,1015.58,1111122 
COMPS,ioos:station:USF.COMPS:ANM:1,2012-11-01T23:42:00Z,27.5400,-82.7400,1015.65,1111122 
COMPS,ioos:station:USF.COMPS:ANM:1,2012-11-01T23:48:00Z,27.5400,-82.7400,1015.69,1111122 
COMPS,ioos:station:USF.COMPS:ANM:1,2012-11-01T23:54:00Z,27.5400,-82.7400,1015.72,1111122 
COMPS,ioos:station:USF.COMPS:ANM:1,2012-11-02T00:00:00Z,27.5400,-82.7400,1015.7,1111122 
COMPS,ioos:station:USF.COMPS:ANM:1,2012-11-02T00:06:00Z,27.5400,-82.7400,1015.82,1111122 
COMPS,ioos:station:USF.COMPS:ANM:1,2012-11-02T00:12:00Z,27.5400,-82.7400,1015.84,1111122 
COMPS,ioos:station:USF.COMPS:ANM:1,2012-11-02T00:18:00Z,27.5400,-82.7400,1015.9,1111122 
COMPS,ioos:station:USF.COMPS:ANM:1,2012-11-02T00:24:00Z,27.5400,-82.7400,1015.96,1111122 
COMPS,ioos:station:USF.COMPS:ANM:1,2012-11-02T00:30:00Z,27.5400,-82.7400,1015.98,1111122 
COMPS,ioos:station:USF.COMPS:ANM:1,2012-11-02T00:36:00Z,27.5400,-82.7400,1016.06,1111122 
COMPS,ioos:station:USF.COMPS:ANM:1,2012-11-02T00:42:00Z,27.5400,-82.7400,1016.22,1111122 
COMPS,ioos:station:USF.COMPS:ANM:1,2012-11-02T00:48:00Z,27.5400,-82.7400,1016.32,1111122 
COMPS,ioos:station:USF.COMPS:ANM:1,2012-11-02T00:54:00Z,27.5400,-82.7400,1016.34,1111122 
COMPS,ioos:station:USF.COMPS:ANM:1,2012-11-02T01:00:00Z,27.5400,-82.7400,1016.3,1111122 
COMPS,ioos:station:USF.COMPS:ANM:1,2012-11-02T01:06:00Z,27.5400,-82.7400,1016.44,1111122 
COMPS,ioos:station:USF.COMPS:ANM:1,2012-11-02T01:12:00Z,27.5400,-82.7400,1016.5,1111122 
COMPS,ioos:station:USF.COMPS:ANM:1,2012-11-02T01:18:00Z,27.5400,-82.7400,1016.53,1111122 
COMPS,ioos:station:USF.COMPS:ANM:1,2012-11-02T01:24:00Z,27.5400,-82.7400,1016.53,1111122 
COMPS,ioos:station:USF.COMPS:ANM:1,2012-11-02T01:30:00Z,27.5400,-82.7400,1016.53,1111122 
COMPS,ioos:station:USF.COMPS:ANM:1,2012-11-02T01:36:00Z,27.5400,-82.7400,1016.65,1111122 
COMPS,ioos:station:USF.COMPS:ANM:1,2012-11-02T01:42:00Z,27.5400,-82.7400,1016.74,1111122 
COMPS,ioos:station:USF.COMPS:ANM:1,2012-11-02T01:48:00Z,27.5400,-82.7400,1016.8,1111122 
COMPS,ioos:station:USF.COMPS:ANM:1,2012-11-02T01:54:00Z,27.5400,-82.7400,1016.82,1111122 
COMPS,ioos:station:USF.COMPS:ANM:1,2012-11-02T02:00:00Z,27.5400,-82.7400,1016.88,1111122 
COMPS,ioos:station:USF.COMPS:ANM:1,2012-11-02T02:06:00Z,27.5400,-82.7400,1016.9,1111122 
COMPS,ioos:station:USF.COMPS:ANM:1,2012-11-02T02:12:00Z,27.5400,-82.7400,1016.96,1111122 
COMPS,ioos:station:USF.COMPS:ANM:1,2012-11-02T02:18:00Z,27.5400,-82.7400,1017.02,1111122 
COMPS,ioos:station:USF.COMPS:ANM:1,2012-11-02T02:24:00Z,27.5400,-82.7400,1017.14,1111122 
COMPS,ioos:station:USF.COMPS:ANM:1,2012-11-02T02:30:00Z,27.5400,-82.7400,1017.22,1111122 
COMPS,ioos:station:USF.COMPS:ANM:1,2012-11-02T02:36:00Z,27.5400,-82.7400,1017.26,1111122 
COMPS,ioos:station:USF.COMPS:ANM:1,2012-11-02T02:42:00Z,27.5400,-82.7400,1017.37,1111122 
COMPS,ioos:station:USF.COMPS:ANM:1,2012-11-02T02:48:00Z,27.5400,-82.7400,1017.37,1111122 
COMPS,ioos:station:USF.COMPS:ANM:1,2012-11-02T02:54:00Z,27.5400,-82.7400,1017.38,1111122 
COMPS,ioos:station:USF.COMPS:ANM:1,2012-11-02T03:00:00Z,27.5400,-82.7400,1017.41,1111122 
COMPS,ioos:station:USF.COMPS:ANM:1,2012-11-02T03:06:00Z,27.5400,-82.7400,1017.52,1111122 
COMPS,ioos:station:USF.COMPS:ANM:1,2012-11-02T03:12:00Z,27.5400,-82.7400,1017.49,1111122 
COMPS,ioos:station:USF.COMPS:ANM:1,2012-11-02T03:18:00Z,27.5400,-82.7400,1017.46,1111122 
COMPS,ioos:station:USF.COMPS:ANM:1,2012-11-02T03:24:00Z,27.5400,-82.7400,1017.46,1111122 
COMPS,ioos:station:USF.COMPS:ANM:1,2012-11-02T03:30:00Z,27.5400,-82.7400,1017.46,1111122 
COMPS,ioos:station:USF.COMPS:ANM:1,2012-11-02T03:36:00Z,27.5400,-82.7400,1017.46,1111122 
COMPS,ioos:station:USF.COMPS:ANM:1,2012-11-02T03:42:00Z,27.5400,-82.7400,1017.4,1111122 
COMPS,ioos:station:USF.COMPS:ANM:1,2012-11-02T03:48:00Z,27.5400,-82.7400,1017.4,1111122 
COMPS,ioos:station:USF.COMPS:ANM:1,2012-11-02T03:54:00Z,27.5400,-82.7400,1017.38,1111122 
COMPS,ioos:station:USF.COMPS:ANM:1,2012-11-02T04:00:00Z,27.5400,-82.7400,1017.48,1111122 
COMPS,ioos:station:USF.COMPS:ANM:1,2012-11-02T04:06:00Z,27.5400,-82.7400,1017.45,1111122 
COMPS,ioos:station:USF.COMPS:ANM:1,2012-11-02T04:12:00Z,27.5400,-82.7400,1017.46,1111122 
COMPS,ioos:station:USF.COMPS:ANM:1,2012-11-02T04:18:00Z,27.5400,-82.7400,1017.48,1111122 
COMPS,ioos:station:USF.COMPS:ANM:1,2012-11-02T04:24:00Z,27.5400,-82.7400,1017.48,1111122 
COMPS,ioos:station:USF.COMPS:ANM:1,2012-11-02T04:30:00Z,27.5400,-82.7400,1017.42,1111122 
COMPS,ioos:station:USF.COMPS:ANM:1,2012-11-02T04:36:00Z,27.5400,-82.7400,1017.34,1111122 
COMPS,ioos:station:USF.COMPS:ANM:1,2012-11-02T04:42:00Z,27.5400,-82.7400,1017.34,1111122 
COMPS,ioos:station:USF.COMPS:ANM:1,2012-11-02T04:48:00Z,27.5400,-82.7400,1017.25,1111122 
COMPS,ioos:station:USF.COMPS:ANM:1,2012-11-02T04:54:00Z,27.5400,-82.7400,1017.21,1111122 
COMPS,ioos:station:USF.COMPS:ANM:1,2012-11-02T05:00:00Z,27.5400,-82.7400,1017.21,1111122 
COMPS,ioos:station:USF.COMPS:ANM:1,2012-11-02T05:06:00Z,27.5400,-82.7400,1017.21,1111122 
COMPS,ioos:station:USF.COMPS:ANM:1,2012-11-02T05:12:00Z,27.5400,-82.7400,1017.21,1111122 